Location: Luz Observatory
(34.5000°N, 117.2833°W)
Time: 15:31:52
(UTC-07:00)

Cosmos 1484 Rocket - Visible Passes

Search period start: 27 March 2017 00:00
Search period end: 06 April 2017 00:00
Orbit: 507 x 563 km, 97.3° (Epoch: 26 March)

Date Brightness Start Highest point End Pass type
(mag) Time Alt. Az. Time Alt. Az. Time Alt. Az.
31 Mar 6.5 19:57:52 10° W 19:58:22 10° W 19:58:52 10° W visible
01 Apr 6.0 19:47:34 10° SW 19:49:28 13° W 19:51:22 10° WNW visible
02 Apr 5.8 19:38:02 10° SW 19:40:34 17° W 19:43:07 10° NW visible
